Location: Gwatt
(46.7204°N, 7.6223°E)
Time: 00:49:25
(UTC+00:00)

USA 234 - Pass Details

Date: 18 September 2020
Orbit: 1102 x 1106 km, 123.0° (Epoch: 16 October)

Event Time Altitude Azimuth Distance (km) Brightness Sun altitude
Rises 22:00:02 0° 59° (ENE) 3,925 6.2 -38.5°
Reaches altitude 10° 22:02:38 10° 52° (NE) 2,966 5.6 -38.7°
Enters shadow 22:03:22 13° 50° (NE) 2,712 5.4 -38.8°
Exits shadow 22:06:55 35° 21° (NNE) 1,695 4.4 -39.0°
Maximum altitude 22:08:43 43° 345° (NNW) 1,514 4.2 -39.2°
Drops below altitude 10° 22:14:47 10° 277° (W) 2,964 5.8 -39.6°
Sets 22:17:23 0° 270° (W) 3,922 6.4 -39.7°
